Tracking 19293 objects as of 20-Nov-2018
HD Live streaming from Space Station
objects crossing your sky now

COSMOS 862

Track COSMOS 862 now!
COSMOS 862 is classified as:


NORAD ID: 9495
Int'l Code: 1976-105A
Perigee: 4,982.1 km
Apogee: 35,420.9 km
Inclination: 69.7 °
Period: 718.5 minutes
Semi major axis: 26572 km
RCS: 11.7728 m2 (large)
Launch date: October 22, 1976
Source: Commonwealth of Independent States (former USSR) (CIS)
Launch site: PLESETSK MISSILE AND SPACE COMPLEX (PKMTR)
aabbcc
Your satellite tracking list
Your tracking list is empty




NASA's NSSDC Master Catalog

Two Line Element Set (TLE):
1  9495U 76105A   18324.11321375 -.00000602  00000-0  00000+0 0  9995
2  9495  69.6635 203.4550 5727491 278.1923  24.0950  2.00425651186190
Source of the keplerian elements: AFSPC